Location: Bruch
(44.2051°N, 0.4120°E)
Time: 08:10:00
(UTC+00:00)

Meteor 2-3 Rocket - Pass Details

Date: 29 November 2020
Orbit: 842 x 885 km, 81.2° (Epoch: 26 January)

Event Time Altitude Azimuth Distance (km) Brightness Sun altitude
Rises 05:05:15 0° 199° (SSW) 3,436 6.8 -22.1°
Reaches altitude 10° 05:07:42 10° 203° (SSW) 2,509 6.0 -21.7°
Maximum altitude 05:13:20 61° 283° (WNW) 990 3.7 -20.7°
Drops below altitude 10° 05:19:05 10° 4° (N) 2,550 6.1 -19.7°
Sets 05:21:36 0° 8° (N) 3,497 6.9 -19.2°
